Tracking 34747 objects as of 16-Jul-2026
HD Live streaming from Space Station
objects crossing your sky now

INSAT 2R (ARABSAT 1C)

Track INSAT 2R (ARABSAT 1C) now!
INSAT 2R (ARABSAT 1C) is classified as:


NORAD ID: 21894
Int'l Code: 1992-010B
Perigee: 36,128.9 km
Apogee: 36,361.9 km
Inclination: 14.4 °
Period: 1,459.2 minutes
Semi major axis: 42616 km
RCS: 2.2387 m2 (large)
Launch date: February 26, 1992
Source: India (IND)
Launch site: FRENCH GUIANA (FRGUI)
Your satellite tracking list
Your tracking list is empty




NASA's NSSDC Master Catalog

Two Line Element Set (TLE):
1 21894U 92010B   26197.00161522 -.00000022  00000-0  00000+0 0  9992
2 21894  14.3749  11.4362 0027343 278.8360  89.2124  0.98681948124538
Source of the keplerian elements: AFSPC